Date,TemperatureHighF,TemperatureAvgF,TemperatureLowF,DewpointHighF,DewpointAvgF,DewpointLowF,HumidityHigh,HumidityAvg,HumidityLow,PressureMaxIn,PressureMinIn,WindSpeedMaxMPH,WindSpeedAvgMPH,GustSpeedMaxMPH,PrecipitationSumIn
2013-3-1,-200,0,200,-100,-100,-100,0,0,100,29.91,29.82,0,-992,2,0.00
2013-3-2,-200,0,200,-100,-100,-100,0,0,100,29.96,29.87,12,-990,12,0.00
2013-3-3,-200,0,200,-100,-100,-100,0,0,100,29.97,29.88,0,-999,2,0.00
2013-3-12,76,72,69,66,65,65,87,80,70,30.00,29.94,6,2,8,0.00
2013-3-13,76,66,57,65,53,41,92,66,31,30.12,29.98,9,4,17,0.00
2013-3-14,64,59,56,54,48,38,83,70,38,30.20,30.11,7,2,11,0.00
2013-3-15,75,63,52,53,48,44,81,61,37,30.25,30.14,6,2,12,0.00
2013-3-16,77,65,52,56,52,50,97,68,42,30.19,30.08,6,2,13,0.00
2013-3-17,78,68,55,61,57,54,96,72,48,30.15,30.02,6,2,11,0.00
2013-3-18,80,71,62,70,65,59,94,80,61,30.08,29.96,7,2,15,0.03
2013-3-19,80,73,67,70,68,65,97,85,61,30.01,29.81,7,2,13,0.04
2013-3-20,88,73,63,69,63,56,99,74,40,29.98,29.80,12,2,18,0.00
2013-3-21,66,65,63,62,61,61,94,89,84,29.86,29.83,5,2,8,0.00
2013-3-22,78,72,55,69,62,53,95,71,52,30.00,29.91,7,3,15,0.00
2013-3-23,91,79,71,74,70,67,98,76,46,29.98,29.80,5,2,13,0.00
2013-3-24,91,81,74,74,71,68,95,75,50,29.89,29.69,8,3,21,0.00
2013-3-25,77,74,63,73,60,39,95,67,37,30.00,29.74,11,5,19,0.04
2013-3-26,66,60,51,46,38,30,65,45,28,30.21,29.98,12,8,22,0.00
2013-3-27,69,56,45,47,40,35,77,56,34,30.25,30.17,10,5,19,0.00
2013-3-28,74,61,50,49,44,38,82,56,29,30.26,30.16,7,3,14,0.00
2013-3-29,76,65,53,53,49,42,75,56,37,30.28,30.20,6,2,14,0.00
2013-3-30,77,67,54,56,51,45,92,61,34,30.26,30.16,5,2,12,0.00
2013-3-31,81,70,58,66,61,53,95,73,51,30.19,30.04,7,2,16,0.00